| time (UTC) | temp C | wind direction | speed KPH | gust KPH | rain 1hr cm | rain 24hr cm | rain mn cm | humidity % | barometer mb |
| 20260503224008 | 14 | 298 | 19.3 | 38.6 | 0.00 | 0.00 | 0.00 | 40 | 1011.7 |
| 20260503222904 | 15 | 302 | 22.5 | 38.6 | 0.00 | 0.00 | 0.00 | 40 | 1011.7 |
| 20260503221904 | 15 | 302 | 20.9 | 38.6 | 0.00 | 0.00 | 0.00 | 40 | 1011.7 |
| 20260503220902 | 15 | 293 | 22.5 | 37.0 | 0.00 | 0.00 | 0.00 | 40 | 1011.7 |
| 20260503215831 | 15 | 306 | 19.3 | 35.4 | 0.00 | 0.00 | 0.00 | 41 | 1011.7 |
| 20260503214830 | 15 | 294 | 17.7 | 37.0 | 0.00 | 0.00 | 0.00 | 41 | 1011.7 |
| 20260503213829 | 15 | 287 | 29.0 | 37.0 | 0.00 | 0.00 | 0.00 | 40 | 1011.8 |
| 20260503212828 | 15 | 298 | 22.5 | 41.8 | 0.00 | 0.00 | 0.00 | 39 | 1011.8 |
| 20260503211827 | 15 | 302 | 24.1 | 43.5 | 0.00 | 0.00 | 0.00 | 38 | 1011.8 |
| 20260503210826 | 16 | 295 | 22.5 | 41.8 | 0.00 | 0.00 | 0.00 | 41 | 1011.8 |
| 20260503205723 | 16 | 289 | 22.5 | 41.8 | 0.00 | 0.00 | 0.00 | 42 | 1012.2 |
| 20260503204722 | 16 | 311 | 19.3 | 38.6 | 0.00 | 0.00 | 0.00 | 41 | 1012.2 |
| 20260503203650 | 15 | 291 | 22.5 | 38.6 | 0.00 | 0.00 | 0.00 | 39 | 1012.1 |
| 20260503202649 | 15 | 298 | 25.7 | 37.0 | 0.00 | 0.00 | 0.00 | 39 | 1012.5 |
| 20260503201648 | 15 | 267 | 19.3 | 38.6 | 0.00 | 0.00 | 0.00 | 41 | 1012.5 |
| 20260503200646 | 16 | 283 | 17.7 | 40.2 | 0.00 | 0.00 | 0.00 | 39 | 1012.5 |
| 20260503195646 | 16 | 304 | 22.5 | 43.5 | 0.00 | 0.00 | 0.00 | 42 | 1012.9 |
| 20260503194645 | 15 | 275 | 24.1 | 40.2 | 0.00 | 0.00 | 0.00 | 40 | 1012.8 |
| 20260503193613 | 15 | 283 | 19.3 | 37.0 | 0.00 | 0.00 | 0.00 | 43 | 1013.2 |
| 20260503192611 | 16 | 285 | 19.3 | 38.6 | 0.00 | 0.00 | 0.00 | 41 | 1013.2 |
| 20260503191610 | 16 | 285 | 22.5 | 38.6 | 0.00 | 0.00 | 0.00 | 40 | 1013.5 |
| 20260503190609 | 15 | 284 | 16.1 | 41.8 | 0.00 | 0.00 | 0.00 | 40 | 1013.5 |
| 20260503185537 | 15 | 300 | 17.7 | 33.8 | 0.00 | 0.00 | 0.00 | 39 | 1013.8 |
| 20260503184537 | 15 | 287 | 19.3 | 35.4 | 0.00 | 0.00 | 0.00 | 38 | 1013.9 |
| 20260503183536 | 15 | 297 | 19.3 | 38.6 | 0.00 | 0.00 | 0.00 | 42 | 1013.8 |
| 20260503182535 | 15 | 300 | 19.3 | 40.2 | 0.00 | 0.00 | 0.00 | 38 | 1013.8 |
| 20260503181535 | 15 | 289 | 25.7 | 40.2 | 0.00 | 0.00 | 0.00 | 39 | 1014.2 |
| 20260503180533 | 15 | 296 | 20.9 | 33.8 | 0.00 | 0.00 | 0.00 | 43 | 1014.1 |
| 20260503175533 | 15 | 301 | 16.1 | 33.8 | 0.00 | 0.00 | 0.00 | 43 | 1014.5 |
| 20260503174532 | 15 | 282 | 20.9 | 33.8 | 0.00 | 0.00 | 0.00 | 44 | 1014.5 |
| 20260503173531 | 15 | 302 | 20.9 | 29.0 | 0.00 | 0.00 | 0.00 | 44 | 1014.5 |
| 20260503172530 | 15 | 304 | 16.1 | 32.2 | 0.00 | 0.00 | 0.00 | 47 | 1014.5 |
| 20260503171529 | 15 | 295 | 20.9 | 33.8 | 0.00 | 0.00 | 0.00 | 47 | 1015.2 |
| 20260503170528 | 14 | 300 | 19.3 | 35.4 | 0.00 | 0.00 | 0.00 | 48 | 1014.8 |
| 20260503150222 | 11 | 310 | 19.3 | 32.2 | 0.00 | 0.00 | 0.00 | 51 | 1016.1 |
| 20260503140146 | 10 | 272 | 19.3 | 27.4 | 0.00 | 0.00 | 0.00 | 52 | 1016.0 |
| 20260503131142 | 8 | 282 | 11.3 | 17.7 | 0.00 | 0.00 | 0.00 | 56 | 1016.2 |
| 20260503130141 | 7 | 275 | 9.7 | 17.7 | 0.00 | 0.00 | 0.00 | 62 | 1016.2 |
| 20260503110825 | 1 | 276 | 4.8 | 11.3 | 0.00 | 0.03 | 0.00 | 80 | 1015.9 |
| 20260503081607 | 2 | 304 | 3.2 | 8.0 | 0.00 | 0.08 | 0.00 | 75 | 1016.0 |
| 20260503080607 | 2 | 303 | 3.2 | 8.0 | 0.00 | 0.08 | 0.00 | 76 | 1015.6 |
| 20260503072603 | 2 | 296 | 4.8 | 9.7 | 0.00 | 0.08 | 0.00 | 77 | 1015.7 |
| 20260503071602 | 2 | 297 | 3.2 | 8.0 | 0.00 | 0.08 | 0.00 | 78 | 1015.7 |
| 20260503070601 | 2 | 301 | 4.8 | 8.0 | 0.00 | 0.08 | 0.00 | 78 | 1015.7 |
| 20260503054554 | 2 | 298 | 3.2 | 8.0 | 0.00 | 0.10 | 0.00 | 83 | 1016.0 |
| 20260503053553 | 2 | 291 | 1.6 | 4.8 | 0.00 | 0.10 | 0.00 | 84 | 1016.0 |
| 20260503052553 | 2 | 291 | 1.6 | 4.8 | 0.00 | 0.10 | 0.00 | 83 | 1016.0 |
| 20260503051552 | 3 | 292 | 1.6 | 6.4 | 0.00 | 0.10 | 0.00 | 83 | 1016.0 |
| 20260503050551 | 3 | 273 | 4.8 | 6.4 | 0.00 | 0.10 | 0.00 | 82 | 1016.0 |
| 20260503045551 | 3 | 272 | 4.8 | 6.4 | 0.00 | 0.10 | 0.00 | 82 | 1016.0 |
| 20260503044519 | 3 | 270 | 1.6 | 4.8 | 0.00 | 0.10 | 0.00 | 82 | 1016.0 |
| 20260503043518 | 3 | 279 | 3.2 | 4.8 | 0.00 | 0.10 | 0.00 | 80 | 1016.0 |
| 20260503042517 | 3 | 268 | 1.6 | 4.8 | 0.00 | 0.10 | 0.00 | 79 | 1016.0 |
| 20260503041516 | 4 | 258 | 3.2 | 8.0 | 0.00 | 0.10 | 0.00 | 78 | 1016.1 |
| 20260503040516 | 4 | 262 | 4.8 | 8.0 | 0.00 | 0.10 | 0.00 | 77 | 1016.1 |
| 20260503035515 | 5 | 260 | 3.2 | 6.4 | 0.00 | 0.10 | 0.10 | 77 | 1016.1 |
| 20260503034514 | 5 | 259 | 3.2 | 8.0 | 0.00 | 0.10 | 0.10 | 76 | 1016.1 |
| 20260503033442 | 5 | 259 | 3.2 | 6.4 | 0.00 | 0.10 | 0.10 | 76 | 1016.4 |
| 20260503032441 | 5 | 253 | 3.2 | 8.0 | 0.00 | 0.10 | 0.10 | 76 | 1016.1 |
| 20260503031410 | 5 | 258 | 4.8 | 8.0 | 0.00 | 0.10 | 0.10 | 75 | 1016.4 |
| 20260503030409 | 5 | 252 | 4.8 | 8.0 | 0.00 | 0.15 | 0.10 | 75 | 1016.4 |
| 20260503025336 | 5 | 258 | 4.8 | 9.7 | 0.00 | 0.25 | 0.10 | 75 | 1016.3 |
| 20260503024336 | 5 | 253 | 3.2 | 9.7 | 0.00 | 0.38 | 0.10 | 76 | 1016.3 |
| 20260503023303 | 5 | 251 | 3.2 | 8.0 | 0.00 | 0.38 | 0.10 | 76 | 1016.6 |
| 20260503022304 | 5 | 255 | 3.2 | 8.0 | 0.00 | 0.38 | 0.10 | 76 | 1016.6 |
| 20260503021200 | 5 | 245 | 1.6 | 6.4 | 0.00 | 0.38 | 0.10 | 77 | 1016.6 |
| 20260503020159 | 5 | 246 | 1.6 | 8.0 | 0.00 | 0.38 | 0.10 | 78 | 1016.3 |
| 20260503015158 | 5 | 255 | 3.2 | 8.0 | 0.00 | 0.38 | 0.10 | 77 | 1016.3 |
| 20260503014157 | 5 | 269 | 3.2 | 4.8 | 0.00 | 0.38 | 0.10 | 76 | 1016.6 |
| 20260503013155 | 5 | 241 | 3.2 | 8.0 | 0.00 | 0.38 | 0.10 | 75 | 1016.3 |
| 20260503012154 | 5 | 246 | 1.6 | 8.0 | 0.00 | 0.38 | 0.10 | 73 | 1016.3 |
| 20260503011153 | 5 | 245 | 3.2 | 6.4 | 0.00 | 0.38 | 0.10 | 73 | 1016.3 |
| 20260503010152 | 5 | 256 | 1.6 | 3.2 | 0.00 | 0.38 | 0.10 | 73 | 1016.3 |
| 20260503005151 | 5 | 256 | 1.6 | 4.8 | 0.00 | 0.38 | 0.10 | 72 | 1016.3 |
| 20260503004048 | 5 | 256 | 1.6 | 4.8 | 0.00 | 0.38 | 0.10 | 70 | 1016.3 |
| 20260503003047 | 5 | 263 | 1.6 | 3.2 | 0.00 | 0.38 | 0.10 | 69 | 1016.3 |
| 20260503002046 | 6 | 325 | 1.6 | 3.2 | 0.00 | 0.38 | 0.10 | 65 | 1015.9 |
| 20260503001046 | 6 | 325 | 1.6 | 1.6 | 0.00 | 0.38 | 0.10 | 67 | 1015.9 |
| 20260503000045 | 6 | 325 | 1.6 | 3.2 | 0.00 | 0.38 | 0.10 | 65 | 1016.3 |
| 20260502235043 | 6 | 325 | 1.6 | 3.2 | 0.00 | 0.38 | 0.10 | 64 | 1016.3 |
| 20260502234011 | 6 | 325 | 1.6 | 4.8 | 0.00 | 0.38 | 0.10 | 61 | 1015.9 |
| 20260502233010 | 6 | 325 | 1.6 | 4.8 | 0.00 | 0.38 | 0.10 | 62 | 1015.9 |
| 20260502232009 | 6 | 10 | 1.6 | 4.8 | 0.00 | 0.38 | 0.10 | 58 | 1015.9 |
| 20260502231008 | 6 | 10 | 1.6 | 4.8 | 0.00 | 0.38 | 0.10 | 61 | 1015.9 |
| 20260502230008 | 6 | 348 | 3.2 | 9.7 | 0.00 | 0.38 | 0.10 | 60 | 1015.9 |
| 20260502225007 | 6 | 355 | 3.2 | 12.9 | 0.00 | 0.38 | 0.10 | 61 | 1016.3 |